#timestamp,LO_Frequency,Hit,StdDev 
1503990015.2,286047002.8,N,1.2
1503990035.9,286047002.6,N,1.1
1503990055.7,286047002.8,N,1.0
1503990075.6,286047000.1,N,1.2
1503990095.4,286047001.4,N,1.2
1503990115.2,286047001.5,N,1.1
1503990135.1,286047002.6,N,1.1
1503990136.0,286047002.6,N,1.1
1503990155.8,286047001.4,N,1.0
1503990175.6,286047001.4,N,1.0
1503990195.5,286047001.5,N,1.0
1503990215.3,286047002.2,N,1.0
1503990235.1,286047001.8,N,0.9
1503990255.9,286047001.5,N,0.9
1503990275.7,286047002.7,N,0.9
1503990295.5,286047002.3,N,0.9
1503990315.4,286047002.2,N,0.9
1503990335.2,286047001.7,N,0.9
1503990355.0,286047001.4,N,0.9
1503990356.0,286047001.4,N,0.8
1503990375.8,286047001.6,N,0.8
1503990395.6,286047002.8,Y,0.0
1503990415.5,286047001.1,P,0.4
1503990435.3,286047000.4,N,0.6
1503990455.1,286046998.4,N,1.3
1503990475.9,286046998.6,N,1.4
1503990495.7,286046998.2,N,1.5
1503990515.5,286047000.8,N,1.4
1503990535.4,286047000.6,N,1.3
1503990555.2,286047000.4,N,1.3
1503990575.0,286047000.9,N,1.2
1503990575.9,286047000.9,N,1.2
1503990595.8,286046998.1,N,1.3
1503990615.6,286046998.1,N,1.3
1503990635.4,286047001.0,N,1.3
1503990655.3,286047000.9,N,1.3
1503990675.1,286047000.7,N,1.3
1503990695.8,286047000.9,N,1.2
1503990715.7,286047000.7,N,1.2
1503990735.5,286046998.6,N,1.2
1503990755.3,286046998.1,N,1.3
1503990775.2,286046998.5,N,1.3
1503990795.0,286047000.7,N,1.3
1503990795.9,286047000.7,N,1.2
1503990815.7,286046998.5,N,1.2
1503990835.6,286047000.7,N,1.2
1503990855.4,286046998.5,N,1.2
1503990875.2,286047000.6,N,1.2
1503990895.1,286047000.9,N,1.2
1503990896.0,286047000.9,N,1.2
1503990915.8,286047000.6,N,1.2
1503990935.7,286047000.2,N,1.1
1503990955.5,286047000.3,N,1.1
1503990975.3,286047000.4,N,1.1
1503990995.2,286047001.2,N,1.1
1503991015.9,286047000.8,N,1.1
1503991035.7,286047000.4,N,1.0
1503991055.6,286047000.0,N,1.0
1503991075.4,286047000.5,N,1.0
1503991095.2,286047002.6,N,1.1
1503991115.1,286047001.8,N,1.1
1503991116.0,286047001.8,N,1.2
1503991135.8,286046999.7,N,1.1
1503991155.6,286047000.1,N,1.0
1503991175.5,286046999.7,N,1.0
1503991195.3,286047002.7,N,1.1
1503991215.1,286046999.9,N,1.1
1503991235.9,286047000.3,N,1.1
1503991255.7,286046999.9,N,1.1
1503991275.5,286046999.8,N,1.1
1503991295.4,286047002.7,N,1.1
1503991315.2,286047002.5,N,1.0
1503991335.0,286047002.5,N,1.1
1503991335.9,286047002.5,N,1.1
1503991355.8,286047002.7,N,1.1
1503991375.6,286047002.1,N,1.1
1503991395.5,286047000.3,N,1.0
1503991415.3,286047000.1,N,1.1
1503991435.1,286047002.2,N,1.1
1503991455.9,286047002.8,N,1.1
1503991475.7,286047002.4,N,1.1
1503991495.5,286046999.9,N,1.2
1503991515.4,286046999.8,N,1.2
1503991535.2,286047001.9,N,1.2
1503991555.0,286047002.7,N,1.2
1503991555.9,286047002.7,N,1.2
1503991575.8,286046999.8,N,1.2
1503991595.6,286047002.2,N,1.2
1503991615.4,286047001.6,N,1.2
1503991635.3,286047001.5,N,1.2
1503991655.1,286047004.4,Y,0.0
1503991675.8,286047002.6,P,0.6
1503991695.7,286047000.7,N,0.8
1503991715.5,286047000.6,N,0.8
1503991735.3,286047000.3,N,0.8
1503991755.2,286047001.0,N,0.7
1503991775.0,286046998.2,N,1.2
1503991775.9,286046998.2,N,1.4
1503991795.7,286047000.7,N,1.3
1503991815.6,286046999.9,N,1.3
1503991835.4,286046998.5,N,1.3
1503991855.2,286047000.9,N,1.3
1503991875.1,286047000.4,N,1.2
1503991876.0,286047000.4,N,1.2
1503991895.8,286046998.6,N,1.2
1503991915.7,286047000.5,N,1.2
1503991935.5,286047000.3,N,1.2
1503991955.3,286047000.7,N,1.1
1503991975.2,286046999.9,N,1.1
1503991995.9,286046998.2,N,1.2
1503992015.7,286047000.6,N,1.1
1503992035.6,286047000.5,N,1.1
1503992055.4,286047000.7,N,1.1
1503992075.2,286046998.4,N,1.1
1503992095.1,286046998.1,N,1.2
1503992096.0,286046998.1,N,1.2
1503992115.8,286047001.2,N,1.2
1503992135.6,286046998.8,N,1.2
1503992155.5,286046998.5,N,1.2
1503992175.3,286046999.9,N,1.2
1503992195.1,286047000.4,N,1.2
1503992215.9,286046999.8,N,1.0
1503992235.7,286046999.9,N,1.0
1503992255.5,286047002.5,N,1.1
1503992275.4,286047002.5,N,1.2
1503992325.2,286047002.6,E,nan
1503992365.2,286046998.9,E,nan
1503992375.1,286046998.7,N,0.0
1503992395.8,286046998.1,P,0.3
1503992415.7,286046998.1,P,0.3
1503992435.5,286047000.6,N,1.0
1503992455.3,286047000.7,N,1.2
1503992475.2,286047000.2,N,1.1
1503992495.0,286047000.6,N,1.1
1503992495.9,286047000.6,N,1.1
1503992515.7,286047000.0,N,1.0
1503992535.6,286047002.5,N,1.3
1503992555.4,286047002.7,N,1.5
1503992575.2,286047002.6,N,1.5
1503992595.1,286047002.4,N,1.6
1503992596.0,286047002.4,N,1.6
1503992615.8,286047000.2,N,1.5
1503992635.6,286047002.8,N,1.6
1503992655.5,286047001.7,N,1.5
1503992675.3,286047002.0,N,1.5
1503992695.1,286047000.3,N,1.5
1503992715.9,286047000.5,N,1.4
1503992735.7,286047000.3,N,1.4
1503992755.6,286047001.2,N,1.4
1503992775.4,286046998.2,N,1.5
1503992795.2,286047001.0,N,1.4
1503992815.1,286046998.2,N,1.5
1503992816.0,286046998.2,N,1.5
1503992835.8,286046998.5,N,1.6
1503992855.6,286046997.2,N,1.6
1503992875.5,286046996.8,N,1.7
1503992895.3,286046999.2,N,1.7
1503992915.1,286046996.9,N,1.8
1503992935.9,286046997.4,N,1.8
1503992955.7,286046997.6,N,1.9
1503992975.5,286046995.6,N,2.0
1503992995.4,286046995.7,N,2.2
1503993015.2,286046997.9,N,2.2
1503993035.0,286046995.3,N,2.3
1503993035.9,286046995.3,N,2.4
1503993055.8,286046995.5,N,2.5
1503993075.6,286046995.5,N,2.5
1503993095.4,286046995.4,N,2.5
1503993115.3,286046995.5,N,2.5
1503993135.1,286046996.0,N,2.4
1503993155.8,286046993.3,N,2.4
1503993175.7,286046994.5,N,2.5
1503993195.5,286046993.4,N,2.4
1503993215.3,286046993.8,N,2.4
1503993235.2,286046995.8,N,2.2
1503993255.0,286046996.3,N,2.1
1503993255.9,286046996.3,N,2.0
1503993275.7,286046993.7,Y,0.0
1503993295.6,286046996.9,P,0.1
1503993315.4,286046997.0,P,0.1
1503993335.2,286046997.2,P,0.2
1503993355.1,286046997.2,Y,0.0
1503993356.0,286046997.2,P,0.1
1503993375.8,286047001.0,P,1.9
1503993395.7,286047001.2,N,2.0
1503993415.5,286046998.1,N,1.8
1503993435.3,286046998.4,N,1.7
1503993455.2,286046999.1,N,1.6
1503993475.9,286046998.8,N,1.5
1503993495.7,286046998.8,N,1.4
1503993515.6,286046998.7,N,1.3
1503993535.4,286046999.6,N,1.3
1503993555.2,286046999.4,N,1.2
1503993575.1,286046999.0,N,1.2
1503993576.0,286046999.0,N,1.1
1503993595.8,286046999.1,N,1.1
